Tracking 19909 objects as of 22-Oct-2019
HD Live streaming from Space Station
objects crossing your sky now

CZ-4C R/B

Track CZ-4C R/B now!
10-day predictions
CZ-4C R/B is classified as:


NORAD ID: 39211
Int'l Code: 2013-037D
Perigee: 472.5 km
Apogee: 643.5 km
Inclination: 97.9 °
Period: 95.7 minutes
Semi major axis: 6928 km
RCS: Unknown
Launch date: July 19, 2013
Source: People's Republic of China (PRC)
Launch site: Taiyaun Space Center, China (TSC)

Note: This is a ROCKET BODY
aabbcc
Your satellite tracking list
Your tracking list is empty




NASA's NSSDC Master Catalog

Two Line Element Set (TLE):
1 39211U 13037D   19294.89099446 +.00000402 +00000-0 +28654-4 0  9999
2 39211 097.9463 051.9743 0123353 292.9436 065.8811 15.05210966343102
Source of the keplerian elements: AFSPC